Regional Weather Roundup
Issued by NWS

Home | Current Version | Previous Version | Text Only | Print | Product List | Glossary On
Versions: 1 2 3 4 5 6 7 8 9 10 11 12 13 14 15 16 17 18 19 20 21 22 23 24 25 26 27 28 29 30 31 32 33 34 35 36 37 38 39 40 41 42 43 44 45 46 47 48 49 50
000
ASUS43 KTOP 210659
RWRKS

WEATHER ROUNDUP FOR KANSAS
NATIONAL WEATHER SERVICE GOODLAND KS
200 AM CDT MON APR 21 2014

NOTE:  "FAIR" INDICATES FEW OR NO CLOUDS BELOW 12,000 FEET WITH NO
SIGNIFICANT WEATHER AND/OR OBSTRUCTIONS TO VISIBILITY.

KSZ001>006-013>018-027>032-041>047-210800-
NORTHWEST KANSAS

CITY           SKY/WX    TMP DP  RH WIND       PRES   REMARKS
GOODLAND       CLEAR     47  44  90 W6        30.03R
HAYS           CLOUDY    55  54  94 SE13      29.95F
HILL CITY      CLOUDY    58  54  86 W7        29.98R
RUSSELL        CLOUDY    56  53  90 S8        29.95F
$$

KSZ061>065-074>080-084>089-210800-
SOUTHWEST KANSAS

CITY           SKY/WX    TMP DP  RH WIND       PRES   REMARKS
DODGE CITY     MOCLDY    51  48  89 NE5       30.01S
ELKHART          N/A     49  42  77 S6          N/A
GARDEN CITY    MOCLDY    53  49  86 S8        30.00S
GREAT BEND     CLOUDY    57  50  77 W9        29.98F
LIBERAL        CLOUDY    57  52  82 S15       30.01F
$$

KSZ066>073-081>083-090>101-210800-
SOUTHEAST KANSAS

CITY           SKY/WX    TMP DP  RH WIND       PRES   REMARKS
CHANUTE        LGT RAIN  61  58  90 S7        30.03S FOG
COFFEYVILLE    CLOUDY    64  58  80 S8        30.03S
HUTCHINSON     CLOUDY    57  52  83 S5        29.98S
NEWTON         MOCLDY    59  52  77 S14       30.00F
PARSONS        CLOUDY    64  57  78 S5        30.04R
WICHITA INTL   MOCLDY    57  54  89 S8        29.98F
WICHITA JABRA  MOCLDY    59  55  87 S9        29.98F
WINFIELD       PTCLDY    59  56  89 S7        30.00S
$$

KSZ007>012-019>026-033>040-048>060-102>105-210800-
NORTHEAST KANSAS

CITY           SKY/WX    TMP DP  RH WIND       PRES   REMARKS
CONCORDIA      CLOUDY    61  56  83 S10       29.95F
EMPORIA        MOCLDY    62  55  77 S12       30.00F
LAWRENCE       CLOUDY    62  56  80 SE5       30.00S
MANHATTAN      MOCLDY    60  55  83 SW5       29.98F
OLATHE IND     CLOUDY    63  55  75 S8        30.01S
OLATHE EXE     CLOUDY    63  54  72 S6        30.00F
SALINA         CLOUDY    57  52  83 S5        29.99S
TOPEKA BILLARD LGT RAIN  66  55  67 SW7       29.99F
TOPEKA FORBES  LGT RAIN  62  55  77 S9        29.99F
$$



USA.gov is the U.S. government's official web portal to all federal, state and local government web resources and services.